Total_Precipitation_Accumulation
0.32 0.39 0.92 1.32 1.36 1.26 1.25 1.26 1.21 1.19 1.11 1.06 1.06 1.01 0.97 0.94 0.94 0.94 0.99 1.02 1.13 1.23 1.35 1.39 1.46 1.50 1.49 1.35 1.10 0.84 0.70 0.64 0.59 0.53 0.51 0.54 0.59 0.66 0.64 0.60 0.56 0.67 0.90
0.29 0.44 0.93 1.32 1.42 1.24 1.17 1.18 1.14 1.14 1.13 1.16 1.23 1.23 1.17 1.12 1.14 1.14 1.20 1.25 1.32 1.46 1.54 1.54 1.51 1.52 1.44 1.24 0.97 0.72 0.50 0.40 0.32 0.23 0.20 0.25 0.41 0.56 0.55 0.50 0.51 0.72 0.86
0.33 0.50 0.90 1.32 1.41 1.32 1.22 1.18 1.08 1.09 1.17 1.25 1.30 1.37 1.37 1.30 1.30 1.36 1.39 1.39 1.42 1.48 1.58 1.65 1.54 1.45 1.27 1.03 0.80 0.63 0.46 0.34 0.25 0.20 0.21 0.28 0.46 0.68 0.65 0.56 0.67 0.80 0.85
0.43 0.55 0.82 1.29 1.46 1.45 1.40 1.28 1.21 1.23 1.24 1.37 1.42 1.47 1.58 1.53 1.45 1.44 1.44 1.41 1.38 1.35 1.41 1.42 1.26 1.15 1.00 0.80 0.71 0.58 0.45 0.33 0.24 0.22 0.29 0.37 0.53 0.90 0.89 0.77 0.77 0.81 0.84
0.61 0.66 0.94 1.34 1.59 1.66 1.63 1.45 1.38 1.39 1.37 1.44 1.50 1.60 1.70 1.71 1.56 1.44 1.36 1.34 1.27 1.19 1.09 1.06 1.00 0.92 0.84 0.71 0.62 0.50 0.42 0.30 0.23 0.23 0.28 0.41 0.68 1.19 1.01 0.87 0.82 0.84 0.81
0.77 0.88 1.17 1.56 1.80 1.91 1.84 1.77 1.68 1.65 1.60 1.61 1.60 1.63 1.79 1.85 1.69 1.47 1.28 1.15 1.06 1.03 0.97 0.91 0.89 0.86 0.78 0.65 0.56 0.44 0.37 0.29 0.19 0.21 0.28 0.39 0.67 1.22 1.05 0.95 0.85 0.82 0.81
0.82 0.98 1.27 1.73 2.03 2.18 2.16 2.13 2.16 2.06 1.94 1.88 1.85 1.82 1.87 1.82 1.61 1.42 1.16 1.01 0.98 0.99 0.97 0.92 0.93 0.81 0.77 0.68 0.57 0.46 0.34 0.25 0.19 0.23 0.33 0.46 0.77 1.24 1.15 1.02 0.90 0.86 0.84
0.87 1.10 1.42 1.86 2.08 2.24 2.31 2.29 2.29 2.30 2.19 2.06 1.96 1.92 1.90 1.75 1.55 1.37 1.22 1.06 1.00 1.00 1.02 0.94 0.90 0.78 0.73 0.67 0.59 0.49 0.33 0.21 0.19 0.23 0.33 0.47 0.81 1.14 1.06 0.94 0.93 0.91 0.84
1.12 1.33 1.61 1.91 2.12 2.32 2.30 2.28 2.29 2.27 2.26 2.13 1.98 1.85 1.74 1.62 1.49 1.36 1.22 1.09 1.09 1.11 1.12 1.01 0.89 0.76 0.71 0.67 0.61 0.45 0.29 0.20 0.20 0.24 0.28 0.46 0.77 1.06 1.03 0.94 0.97 0.95 0.87
1.56 1.71 1.88 2.03 2.15 2.25 2.21 2.18 2.25 2.27 2.29 2.27 2.12 1.77 1.56 1.43 1.43 1.35 1.17 1.10 1.04 1.08 1.17 1.13 0.99 0.80 0.69 0.61 0.54 0.42 0.33 0.28 0.23 0.25 0.31 0.43 0.74 1.00 1.02 0.99 0.97 1.00 0.95
2.11 2.07 2.20 2.29 2.34 2.39 2.39 2.27 2.34 2.38 2.36 2.26 2.15 1.84 1.59 1.51 1.45 1.35 1.15 1.06 1.01 0.96 0.99 1.10 1.05 0.92 0.75 0.57 0.48 0.43 0.42 0.37 0.30 0.35 0.42 0.57 0.86 1.02 1.09 1.06 0.97 1.00 0.97
2.37 2.33 2.36 2.45 2.39 2.44 2.48 2.52 2.60 2.50 2.44 2.29 2.03 1.91 1.79 1.66 1.52 1.33 1.24 1.10 1.04 0.98 0.98 1.06 1.03 0.92 0.78 0.64 0.52 0.45 0.42 0.41 0.41 0.40 0.46 0.73 1.08 1.20 1.17 1.11 1.04 1.01 0.94
2.47 2.56 2.58 2.68 2.64 2.53 2.57 2.51 2.61 2.64 2.58 2.47 2.21 2.05 2.00 1.96 1.76 1.57 1.40 1.36 1.26 1.14 1.11 1.08 1.06 0.83 0.67 0.62 0.60 0.51 0.44 0.42 0.46 0.46 0.47 0.69 1.09 1.31 1.29 1.20 1.17 1.13 1.06
2.80 2.83 2.89 2.88 2.93 2.72 2.62 2.57 2.60 2.64 2.59 2.49 2.24 2.09 2.02 1.94 1.84 1.66 1.45 1.32 1.29 1.16 1.12 1.07 0.94 0.78 0.71 0.65 0.61 0.60 0.55 0.50 0.46 0.51 0.51 0.57 0.89 1.20 1.32 1.33 1.32 1.27 1.24
3.06 3.15 3.23 3.11 3.12 3.07 2.86 2.68 2.66 2.77 2.73 2.62 2.43 2.22 2.03 1.87 1.74 1.70 1.63 1.53 1.39 1.26 1.15 1.11 0.99 0.89 0.80 0.73 0.65 0.63 0.60 0.54 0.50 0.47 0.48 0.52 0.68 1.00 1.33 1.47 1.57 1.58 1.54
3.27 3.48 3.54 3.42 3.26 3.24 3.06 2.75 2.67 2.82 2.91 2.95 2.67 2.35 2.29 2.13 1.98 1.87 1.77 1.69 1.54 1.41 1.33 1.23 1.11 1.08 0.98 0.88 0.76 0.66 0.65 0.64 0.61 0.55 0.49 0.50 0.57 0.73 1.13 1.49 1.69 1.74 1.73
3.14 3.51 3.73 3.68 3.60 3.43 3.34 3.12 2.81 2.95 3.07 3.08 2.93 2.64 2.55 2.45 2.29 2.19 2.02 1.82 1.60 1.49 1.46 1.46 1.43 1.38 1.27 1.05 0.90 0.78 0.71 0.70 0.67 0.60 0.54 0.53 0.53 0.59 0.86 1.28 1.51 1.67 1.72
3.09 3.31 3.68 3.79 3.85 3.74 3.55 3.40 3.06 2.95 3.08 3.07 2.94 2.83 2.71 2.60 2.48 2.39 2.21 2.00 1.83 1.73 1.66 1.61 1.61 1.57 1.44 1.22 1.02 0.93 0.84 0.77 0.72 0.68 0.62 0.59 0.58 0.56 0.69 0.99 1.18 1.34 1.56
3.07 3.23 3.55 3.74 3.89 4.05 4.01 3.90 3.55 3.20 3.18 3.19 3.00 2.80 2.73 2.67 2.61 2.50 2.32 2.14 2.04 1.96 1.82 1.70 1.67 1.63 1.57 1.43 1.25 1.11 1.04 0.97 0.92 0.86 0.77 0.71 0.70 0.70 0.71 0.84 0.93 1.03 1.25
3.31 3.48 3.59 3.82 4.09 4.40 4.61 4.51 4.27 3.75 3.40 3.29 3.19 2.97 2.75 2.65 2.60 2.55 2.45 2.32 2.18 2.14 2.04 1.90 1.76 1.69 1.63 1.64 1.56 1.40 1.28 1.20 1.11 1.04 0.91 0.82 0.81 0.84 0.87 0.88 0.83 0.83 1.00
3.40 3.63 3.76 3.83 4.10 4.48 4.51 4.34 4.13 3.86 3.59 3.34 3.22 3.18 2.99 2.82 2.67 2.58 2.44 2.45 2.36 2.21 2.12 2.08 2.06 2.03 1.91 1.89 1.96 1.84 1.59 1.45 1.37 1.22 1.09 0.94 0.90 0.95 0.98 0.99 0.93 0.84 0.89
3.15 3.55 3.64 3.86 4.16 4.44 4.38 4.28 4.21 4.20 4.02 3.73 3.58 3.32 3.13 2.97 2.79 2.70 2.58 2.44 2.40 2.32 2.21 2.16 2.16 2.27 2.33 2.29 2.26 2.25 2.12 1.93 1.60 1.33 1.25 1.11 1.01 1.06 1.11 1.10 1.07 1.00 0.96
2.60 3.12 3.38 3.53 3.92 4.24 4.45 4.80 4.85 4.70 4.40 3.93 3.63 3.47 3.30 3.27 3.10 2.86 2.79 2.67 2.50 2.40 2.30 2.20 2.06 2.05 2.22 2.39 2.39 2.49 2.33 2.03 1.75 1.55 1.34 1.22 1.13 1.10 1.09 1.11 1.12 1.10 1.06
2.20 2.66 3.10 3.40 3.69 3.95 4.16 4.41 4.58 4.44 4.05 3.65 3.43 3.47 3.54 3.52 3.51 3.32 3.08 2.90 2.76 2.58 2.39 2.33 2.30 2.15 2.14 2.26 2.32 2.25 2.14 1.89 1.86 1.82 1.54 1.36 1.26 1.20 1.15 1.11 1.09 1.12 1.18
1.94 2.40 2.83 3.15 3.50 3.70 3.90 4.03 4.23 4.30 4.17 4.01 3.77 3.67 3.70 3.66 3.58 3.48 3.36 3.15 2.95 2.82 2.66 2.54 2.46 2.42 2.34 2.29 2.28 2.19 2.15 1.94 1.75 1.77 1.64 1.45 1.40 1.31 1.24 1.17 1.11 1.14 1.20
1.78 2.07 2.49 2.87 3.28 3.57 3.73 3.99 4.08 4.01 4.05 4.04 3.75 3.71 3.72 3.80 3.73 3.51 3.37 3.28 3.13 3.02 2.90 2.79 2.70 2.63 2.54 2.39 2.34 2.30 2.28 2.23 1.99 1.89 1.74 1.49 1.45 1.37 1.34 1.30 1.24 1.21 1.25